Regional Weather Roundup
Issued by NWS

Home | Current Version | Previous Version | Graphics & Text | Print | Product List | Glossary On
Versions: 1 2 3 4 5 6 7 8 9 10 11 12 13 14 15 16 17 18 19 20 21 22 23 24 25 26 27 28 29 30 31 32 33 34 35 36 37 38 39 40 41 42 43 44 45 46 47 48 49 50
452
ASUS43 KOAX 081110
RWRNE

WEATHER ROUNDUP FOR NEBRASKA
NATIONAL WEATHER SERVICE OMAHA NE
500 AM CST THU DEC 08 2016

NOTES: SATELLITE DATA IS BEING USED TO AUGMENT CLOUD COVER ABOVE
       12000 FEET.
       "FAIR" INDICATES FEW OR NO CLOUDS BELOW 12,000 FEET WITH NO
       SIGNIFICANT WEATHER AND/OR OBSTRUCTIONS TO VISIBILITY.

  * THESE STATIONS DO NOT REPORT WEATHER SUCH AS RAIN...SNOW OR FOG.

NEZ001>004-019>022-054>056-081200-
NEBRASKA PANHANDLE

CITY           SKY/WX    TMP DP  RH WIND       PRES   REMARKS
SCOTTSBLUFF    CLOUDY    -8 -13  78 NW8       30.51S WCI -24
ALLIANCE       CLEAR    -10 -15  78 W8        30.47S WCI -26
CHADRON        CLEAR     -2  -9  72 SW6       30.55R WCI -14
KIMBALL        CLOUDY   -11 -16  81 W10       30.41S WCI -30
SIDNEY         CLOUDY    -6 -12  75 W12       30.47S WCI -25
$$

NEZ057>060-069>072-079>082-081200-
SOUTHWEST NEBRASKA

CITY           SKY/WX    TMP DP  RH WIND       PRES   REMARKS
NORTH PLATTE   CLEAR      1  -5  75 NW8       30.56S WCI -13
IMPERIAL       CLEAR      0  -8  69 NW10      30.54R WCI -16
LEXINGTON      CLEAR      6  -1  73 W13       30.57R WCI -10
MCCOOK         CLEAR     -1  -7  75 W9        30.59R WCI -16
OGALLALA       CLEAR      3  -5  70 NW10      30.54S WCI -13
$$

NEZ005>010-023>029-035>040-094-081200-
NORTH CENTRAL NEBRASKA

CITY           SKY/WX    TMP DP  RH WIND       PRES   REMARKS
VALENTINE      MOCLDY     5  -5  63 NW14      30.54S WCI -12
AINSWORTH      MOCLDY     5  -2  74 NW13G18   30.52R WCI -12
BROKEN BOW     CLEAR      6  -2  69 NW24G30   30.53R WCI -16
O`NEILL        CLEAR      7   0  72 NW16G25   30.52R WCI -11
ORD            CLEAR      7  -3  64 NW16      30.54R WCI -11
THEDFORD       CLEAR      4  -3  75 NW12      30.53R WCI -13
$$

NEZ041-046>049-061>064-073>077-083>087-081200-
SOUTH CENTRAL NEBRASKA

CITY           SKY/WX    TMP DP  RH WIND       PRES   REMARKS
GRAND ISLAND   CLEAR      9   0  67 NW16      30.55S WCI  -8
AURORA         CLEAR     10   1  67 NW18G24   30.53F WCI  -9
HASTINGS       CLEAR     10   0  63 NW14      30.56R WCI  -6
HEBRON         CLEAR     12   3  68 NW13G20   30.58R WCI  -3
HOLDREGE       CLEAR      8  -1  69 NW13      30.55S WCI  -8
KEARNEY *      CLEAR      9  -2  61 NW14G22   30.55R WCI  -8
YORK           CLEAR     10   1  67 NW18      30.53F WCI  -8
$$

NEZ011>018-030>034-042>045-081200-
NORTHEAST NEBRASKA

CITY           SKY/WX    TMP DP  RH WIND       PRES   REMARKS
NORFOLK        CLEAR      7  -1  70 NW18G25   30.50R WCI -12
ALBION         CLEAR      8   0  68 NW14      30.52R WCI  -8
BLAIR          CLEAR     11   5  75 NW13      30.49R WCI  -4
FREMONT        CLEAR     10   4  75 W12       30.53R WCI  -5
TEKAMAH        PTCLDY    11   3  70 NW17      30.52R WCI  -6
WAYNE          MOCLDY     9   2  73 NW16      30.50R WCI  -8
$$

NEZ050>053-065>068-078-088>093-081200-
SOUTHEAST NEBRASKA

CITY           SKY/WX    TMP DP  RH WIND       PRES   REMARKS
LINCOLN        CLEAR     12   2  64 NW15      30.56R WCI  -4
OMAHA EPPLEY   PTCLDY    12   4  70 NW20      30.52R WCI  -6
BEATRICE       CLEAR     13   4  67 NW15      30.55R WCI  -3
FALLS CITY     CLEAR     14   5  67 NW14      30.54R WCI  -1
NEBRASKA CITY  CLEAR     13   2  60 NW16G22   30.51S WCI  -3
PLATTSMOUTH    CLEAR     12   2  64 W12G17    30.51R WCI  -2
$$

NEZ044-045-051>053-067-081200-
OMAHA AREA

CITY           SKY/WX    TMP DP  RH WIND       PRES   REMARKS
OMAHA EPPLEY   PTCLDY    12   4  70 NW20      30.52R WCI  -6
BLAIR          CLEAR     11   5  75 NW13      30.49R WCI  -4
FREMONT        CLEAR     10   4  75 W12       30.53R WCI  -5
MILLARD        CLEAR     13   4  65 NW16G24   30.52S WCI  -3
OFFUTT AFB     CLEAR     12   4  70 NW20      30.51R WCI  -6
PLATTSMOUTH    CLEAR     12   2  64 W12G17    30.51R WCI  -2
WAHOO          FAIR      12   3  67 NW21      30.52R WCI  -7
$$




USA.gov is the U.S. government's official web portal to all federal, state and local government web resources and services.